| time (UTC) | temp C | wind direction | speed KPH | gust KPH | rain 1hr cm | rain 24hr cm | rain mn cm | humidity % | barometer mb |
| 20260503220300 | 16 | 234 | 3.2 | 6.4 | 0.00 | 0.00 | 0.00 | 27 | 1017.0 |
| 20260503215756 | 16 | 321 | 4.8 | 6.4 | 0.00 | 0.00 | 0.00 | 31 | 1017.0 |
| 20260503215253 | 15 | 307 | 3.2 | 11.3 | 0.00 | 0.00 | 0.00 | 31 | 1017.3 |
| 20260503214751 | 16 | 319 | 4.8 | 8.0 | 0.00 | 0.00 | 0.00 | 29 | 1017.3 |
| 20260503214248 | 16 | 322 | 6.4 | 12.9 | 0.00 | 0.00 | 0.00 | 28 | 1017.2 |
| 20260503213746 | 16 | 291 | 6.4 | 8.0 | 0.00 | 0.00 | 0.00 | 29 | 1017.4 |
| 20260503213243 | 16 | 225 | 3.2 | 11.3 | 0.00 | 0.00 | 0.00 | 28 | 1017.4 |
| 20260503212740 | 15 | 333 | 4.8 | 14.5 | 0.00 | 0.00 | 0.00 | 28 | 1017.3 |
| 20260503212238 | 15 | 346 | 11.3 | 16.1 | 0.00 | 0.00 | 0.00 | 29 | 1017.2 |
| 20260503211735 | 15 | 174 | 4.8 | 8.0 | 0.00 | 0.00 | 0.00 | 28 | 1017.4 |
| 20260503211231 | 15 | 351 | 11.3 | 12.9 | 0.00 | 0.00 | 0.00 | 28 | 1017.5 |
| 20260503210727 | 15 | 238 | 4.8 | 9.7 | 0.00 | 0.00 | 0.00 | 27 | 1017.7 |
| 20260503210225 | 15 | 353 | 8.0 | 8.0 | 0.00 | 0.00 | 0.00 | 27 | 1017.6 |
| 20260503205720 | 15 | 355 | 9.7 | 14.5 | 0.00 | 0.00 | 0.00 | 28 | 1017.6 |
| 20260503205216 | 15 | 323 | 3.2 | 11.3 | 0.00 | 0.00 | 0.00 | 28 | 1017.5 |
| 20260503204712 | 15 | 300 | 8.0 | 11.3 | 0.00 | 0.00 | 0.00 | 30 | 1017.6 |
| 20260503204210 | 16 | 304 | 6.4 | 12.9 | 0.00 | 0.00 | 0.00 | 28 | 1017.7 |
| 20260503203707 | 16 | 193 | 4.8 | 8.0 | 0.00 | 0.00 | 0.00 | 28 | 1017.6 |
| 20260503203205 | 15 | 315 | 6.4 | 6.4 | 0.00 | 0.00 | 0.00 | 31 | 1017.9 |
| 20260503202702 | 15 | 340 | 3.2 | 11.3 | 0.00 | 0.00 | 0.00 | 30 | 1017.8 |
| 20260503202200 | 16 | 158 | 9.7 | 9.7 | 0.00 | 0.00 | 0.00 | 29 | 1017.8 |
| 20260503201657 | 16 | 106 | 3.2 | 8.0 | 0.00 | 0.00 | 0.00 | 26 | 1017.7 |
| 20260503201155 | 16 | 170 | 4.8 | 9.7 | 0.00 | 0.00 | 0.00 | 28 | 1017.9 |
| 20260503200650 | 16 | 214 | 0.0 | 14.5 | 0.00 | 0.00 | 0.00 | 27 | 1018.2 |
| 20260503200147 | 16 | 231 | 4.8 | 9.7 | 0.00 | 0.00 | 0.00 | 26 | 1018.3 |
| 20260503195644 | 16 | 292 | 6.4 | 9.7 | 0.00 | 0.00 | 0.00 | 29 | 1018.4 |
| 20260503195141 | 16 | 257 | 3.2 | 11.3 | 0.00 | 0.00 | 0.00 | 28 | 1018.5 |
| 20260503194638 | 15 | 251 | 3.2 | 14.5 | 0.00 | 0.00 | 0.00 | 28 | 1018.5 |
| 20260503194133 | 15 | 343 | 6.4 | 9.7 | 0.00 | 0.00 | 0.00 | 29 | 1018.5 |
| 20260503193631 | 16 | 291 | 8.0 | 8.0 | 0.00 | 0.00 | 0.00 | 31 | 1018.7 |
| 20260503193126 | 16 | 322 | 14.5 | 16.1 | 0.00 | 0.00 | 0.00 | 28 | 1018.6 |
| 20260503192622 | 16 | 182 | 4.8 | 14.5 | 0.00 | 0.00 | 0.00 | 30 | 1018.8 |
| 20260503192118 | 16 | 220 | 3.2 | 9.7 | 0.00 | 0.00 | 0.00 | 29 | 1018.8 |
| 20260503191615 | 16 | 217 | 3.2 | 9.7 | 0.00 | 0.00 | 0.00 | 26 | 1018.6 |
| 20260503191111 | 15 | 322 | 6.4 | 6.4 | 0.00 | 0.00 | 0.00 | 29 | 1018.7 |
| 20260503190609 | 13 | 241 | 8.0 | 19.3 | 0.00 | 0.00 | 0.00 | 29 | 1018.8 |
| 20260503190106 | 14 | 297 | 9.7 | 9.7 | 0.00 | 0.00 | 0.00 | 30 | 1018.9 |
| 20260503185602 | 15 | 306 | 8.0 | 11.3 | 0.00 | 0.00 | 0.00 | 30 | 1019.0 |
| 20260503185102 | 14 | 347 | 11.3 | 14.5 | 0.00 | 0.00 | 0.00 | 31 | 1019.0 |
| 20260503184558 | 15 | 357 | 4.8 | 12.9 | 0.00 | 0.00 | 0.00 | 30 | 1019.0 |
| 20260503184055 | 13 | 339 | 8.0 | 14.5 | 0.00 | 0.00 | 0.00 | 31 | 1019.6 |
| 20260503183551 | 15 | 313 | 8.0 | 12.9 | 0.00 | 0.00 | 0.00 | 31 | 1019.6 |
| 20260503183048 | 14 | 301 | 4.8 | 12.9 | 0.00 | 0.00 | 0.00 | 29 | 1019.5 |
| 20260503182547 | 15 | 195 | 8.0 | 8.0 | 0.00 | 0.00 | 0.00 | 28 | 1019.4 |
| 20260503182045 | 15 | 163 | 6.4 | 9.7 | 0.00 | 0.00 | 0.00 | 30 | 1019.5 |
| 20260503181541 | 13 | 316 | 9.7 | 17.7 | 0.00 | 0.00 | 0.00 | 30 | 1019.8 |
| 20260503181037 | 13 | 323 | 9.7 | 16.1 | 0.00 | 0.00 | 0.00 | 31 | 1019.6 |
| 20260503180535 | 15 | 204 | 4.8 | 16.1 | 0.00 | 0.00 | 0.00 | 34 | 1019.4 |
| 20260503180032 | 13 | 281 | 4.8 | 11.3 | 0.00 | 0.00 | 0.00 | 31 | 1019.6 |
| 20260503175529 | 13 | 277 | 6.4 | 14.5 | 0.00 | 0.00 | 0.00 | 31 | 1019.5 |
| 20260503175027 | 13 | 340 | 14.5 | 16.1 | 0.00 | 0.00 | 0.00 | 32 | 1019.5 |
| 20260503174524 | 13 | 327 | 11.3 | 12.9 | 0.00 | 0.00 | 0.00 | 30 | 1019.6 |
| 20260503174020 | 12 | 319 | 9.7 | 16.1 | 0.00 | 0.00 | 0.00 | 31 | 1019.9 |
| 20260503173515 | 12 | 334 | 14.5 | 19.3 | 0.00 | 0.00 | 0.00 | 31 | 1019.7 |
| 20260503173011 | 12 | 296 | 9.7 | 9.7 | 0.00 | 0.00 | 0.00 | 36 | 1019.6 |
| 20260503172509 | 13 | 314 | 14.5 | 16.1 | 0.00 | 0.00 | 0.00 | 31 | 1019.8 |
| 20260503172006 | 13 | 285 | 4.8 | 16.1 | 0.00 | 0.00 | 0.00 | 31 | 1019.6 |
| 20260503171502 | 12 | 345 | 14.5 | 16.1 | 0.00 | 0.00 | 0.00 | 31 | 1020.0 |
| 20260503171000 | 12 | 300 | 8.0 | 14.5 | 0.00 | 0.00 | 0.00 | 31 | 1020.0 |
| 20260503170456 | 12 | 354 | 6.4 | 9.7 | 0.00 | 0.00 | 0.00 | 33 | 1020.0 |
| 20260503150848 | 10 | 195 | 6.4 | 14.5 | 0.00 | 0.00 | 0.00 | 43 | 1021.1 |
| 20260503150344 | 10 | 276 | 9.7 | 16.1 | 0.00 | 0.00 | 0.00 | 41 | 1021.1 |
| 20260503140309 | 6 | 336 | 8.0 | 8.0 | 0.00 | 0.00 | 0.00 | 50 | 1021.2 |
| 20260503131238 | 6 | 285 | 3.2 | 8.0 | 0.00 | 0.00 | 0.00 | 50 | 1021.2 |
| 20260503130736 | 6 | 277 | 3.2 | 6.4 | 0.00 | 0.00 | 0.00 | 51 | 1021.0 |
| 20260503130233 | 6 | 278 | 0.0 | 6.4 | 0.00 | 0.00 | 0.00 | 52 | 1021.0 |
| 20260503120159 | 2 | 221 | 0.0 | 3.2 | 0.00 | 0.00 | 0.00 | 71 | 1020.7 |
| 20260503110627 | 0 | 57 | 0.0 | 3.2 | 0.00 | 0.00 | 0.00 | 81 | 1020.2 |
| 20260503110124 | 0 | 275 | 1.6 | 3.2 | 0.00 | 0.00 | 0.00 | 81 | 1020.2 |
| 20260503081440 | 5 | 342 | 6.4 | 8.0 | 0.00 | 0.00 | 0.00 | 59 | 1018.0 |
| 20260503080937 | 4 | 307 | 0.0 | 9.7 | 0.00 | 0.00 | 0.00 | 60 | 1018.1 |
| 20260503080433 | 5 | 6 | 3.2 | 8.0 | 0.00 | 0.00 | 0.00 | 61 | 1018.0 |
| 20260503072910 | 5 | 357 | 3.2 | 9.7 | 0.00 | 0.00 | 0.00 | 57 | 1017.9 |
| 20260503072407 | 5 | 351 | 9.7 | 14.5 | 0.00 | 0.00 | 0.00 | 56 | 1017.9 |
| 20260503071903 | 5 | 345 | 8.0 | 8.0 | 0.00 | 0.00 | 0.00 | 57 | 1017.7 |
| 20260503071401 | 5 | 340 | 4.8 | 6.4 | 0.00 | 0.00 | 0.00 | 56 | 1017.8 |
| 20260503070856 | 5 | 345 | 6.4 | 9.7 | 0.00 | 0.00 | 0.00 | 58 | 1017.6 |
| 20260503070355 | 5 | 354 | 6.4 | 8.0 | 0.00 | 0.00 | 0.00 | 58 | 1017.7 |
| 20260503060320 | 5 | 229 | 1.6 | 9.7 | 0.00 | 0.00 | 0.00 | 63 | 1017.7 |
| 20260503054808 | 5 | 261 | 1.6 | 3.2 | 0.00 | 0.00 | 0.00 | 71 | 1017.5 |
| 20260503054304 | 5 | 249 | 0.0 | 4.8 | 0.00 | 0.00 | 0.00 | 70 | 1017.6 |
| 20260503053801 | 5 | 340 | 3.2 | 3.2 | 0.00 | 0.00 | 0.00 | 72 | 1017.7 |
| 20260503053300 | 5 | 208 | 0.0 | 1.6 | 0.00 | 0.00 | 0.00 | 75 | 1017.7 |
| 20260503052755 | 5 | 302 | 0.0 | 1.6 | 0.00 | 0.00 | 0.00 | 74 | 1017.5 |
| 20260503052253 | 5 | 285 | 0.0 | 4.8 | 0.00 | 0.00 | 0.00 | 72 | 1017.8 |
| 20260503051748 | 5 | 233 | 0.0 | 3.2 | 0.00 | 0.00 | 0.00 | 71 | 1017.6 |
| 20260503051246 | 5 | 0 | 0.0 | 3.2 | 0.00 | 0.00 | 0.00 | 69 | 1017.7 |
| 20260503050742 | 5 | 212 | 0.0 | 3.2 | 0.00 | 0.00 | 0.00 | 70 | 1017.5 |
| 20260503050238 | 5 | 314 | 1.6 | 3.2 | 0.00 | 0.00 | 0.00 | 69 | 1017.6 |
| 20260503045736 | 5 | 145 | 1.6 | 1.6 | 0.00 | 0.00 | 0.00 | 70 | 1017.5 |
| 20260503045234 | 5 | 311 | 0.0 | 3.2 | 0.00 | 0.00 | 0.00 | 65 | 1017.8 |
| 20260503044730 | 5 | 326 | 0.0 | 3.2 | 0.00 | 0.00 | 0.00 | 65 | 1017.6 |
| 20260503044227 | 5 | 347 | 3.2 | 3.2 | 0.00 | 0.00 | 0.00 | 67 | 1017.8 |
| 20260503043724 | 5 | 150 | 1.6 | 3.2 | 0.00 | 0.00 | 0.00 | 67 | 1017.9 |
| 20260503043221 | 6 | 314 | 1.6 | 3.2 | 0.00 | 0.00 | 0.00 | 65 | 1017.8 |
| 20260503042717 | 6 | 314 | 0.0 | 3.2 | 0.00 | 0.00 | 0.00 | 64 | 1017.8 |
| 20260503042214 | 5 | 343 | 3.2 | 3.2 | 0.00 | 0.00 | 0.00 | 65 | 1017.8 |
| 20260503041710 | 6 | 328 | 3.2 | 3.2 | 0.00 | 0.00 | 0.00 | 65 | 1018.0 |
| 20260503041208 | 6 | 75 | 0.0 | 4.8 | 0.00 | 0.00 | 0.00 | 64 | 1017.9 |
| 20260503040705 | 6 | 290 | 0.0 | 3.2 | 0.00 | 0.00 | 0.00 | 63 | 1017.8 |
| 20260503040203 | 6 | 328 | 4.8 | 4.8 | 0.00 | 0.00 | 0.00 | 63 | 1017.9 |
| 20260503035659 | 6 | 331 | 3.2 | 4.8 | 0.00 | 0.00 | 0.00 | 62 | 1017.9 |
| 20260503035157 | 6 | 329 | 4.8 | 6.4 | 0.00 | 0.00 | 0.00 | 60 | 1017.9 |
| 20260503034654 | 6 | 324 | 4.8 | 6.4 | 0.00 | 0.00 | 0.00 | 61 | 1017.8 |
| 20260503034151 | 6 | 348 | 6.4 | 6.4 | 0.00 | 0.00 | 0.00 | 61 | 1017.9 |
| 20260503033648 | 6 | 355 | 4.8 | 6.4 | 0.00 | 0.00 | 0.00 | 61 | 1017.7 |
| 20260503033146 | 6 | 331 | 4.8 | 6.4 | 0.00 | 0.00 | 0.00 | 61 | 1017.6 |
| 20260503032644 | 6 | 347 | 3.2 | 6.4 | 0.00 | 0.00 | 0.00 | 61 | 1017.7 |
| 20260503032142 | 6 | 345 | 3.2 | 6.4 | 0.00 | 0.00 | 0.00 | 62 | 1017.8 |
| 20260503031639 | 6 | 338 | 3.2 | 3.2 | 0.00 | 0.00 | 0.00 | 62 | 1017.8 |
| 20260503031137 | 6 | 349 | 3.2 | 6.4 | 0.00 | 0.00 | 0.00 | 61 | 1017.5 |
| 20260503030632 | 6 | 338 | 3.2 | 6.4 | 0.00 | 0.00 | 0.00 | 61 | 1017.4 |
| 20260503030130 | 6 | 346 | 4.8 | 4.8 | 0.00 | 0.00 | 0.00 | 61 | 1017.8 |
| 20260503025626 | 6 | 345 | 3.2 | 4.8 | 0.00 | 0.00 | 0.00 | 61 | 1017.8 |
| 20260503025124 | 6 | 345 | 3.2 | 3.2 | 0.00 | 0.00 | 0.00 | 60 | 1017.8 |
| 20260503024620 | 6 | 344 | 3.2 | 3.2 | 0.00 | 0.00 | 0.00 | 62 | 1017.8 |
| 20260503024118 | 6 | 332 | 3.2 | 3.2 | 0.00 | 0.00 | 0.00 | 61 | 1017.9 |
| 20260503023615 | 5 | 338 | 3.2 | 3.2 | 0.00 | 0.00 | 0.00 | 64 | 1017.7 |
| 20260503023112 | 5 | 291 | 3.2 | 3.2 | 0.00 | 0.00 | 0.00 | 68 | 1017.8 |
| 20260503022607 | 5 | 224 | 0.0 | 1.6 | 0.00 | 0.00 | 0.00 | 67 | 1017.6 |
| 20260503022102 | 5 | 171 | 0.0 | 1.6 | 0.00 | 0.00 | 0.00 | 66 | 1017.7 |
| 20260503021600 | 5 | 124 | 0.0 | 3.2 | 0.00 | 0.00 | 0.00 | 66 | 1017.6 |
| 20260503021056 | 5 | 341 | 0.0 | 3.2 | 0.00 | 0.00 | 0.00 | 63 | 1017.7 |
| 20260503020553 | 5 | 338 | 1.6 | 3.2 | 0.00 | 0.00 | 0.00 | 64 | 1017.8 |
| 20260503020050 | 6 | 228 | 0.0 | 3.2 | 0.00 | 0.00 | 0.00 | 64 | 1017.6 |
| 20260503015547 | 6 | 293 | 0.0 | 3.2 | 0.00 | 0.00 | 0.00 | 60 | 1017.6 |
| 20260503015044 | 6 | 282 | 0.0 | 6.4 | 0.00 | 0.00 | 0.00 | 58 | 1017.5 |
| 20260503014540 | 6 | 267 | 3.2 | 4.8 | 0.00 | 0.00 | 0.00 | 58 | 1017.6 |
| 20260503014038 | 6 | 315 | 0.0 | 4.8 | 0.00 | 0.00 | 0.00 | 56 | 1017.4 |
| 20260503013535 | 7 | 355 | 3.2 | 4.8 | 0.00 | 0.00 | 0.00 | 55 | 1017.3 |
| 20260503013033 | 7 | 261 | 3.2 | 6.4 | 0.00 | 0.00 | 0.00 | 49 | 1017.4 |
| 20260503012530 | 7 | 277 | 3.2 | 8.0 | 0.00 | 0.00 | 0.00 | 50 | 1017.3 |
| 20260503012026 | 7 | 242 | 1.6 | 3.2 | 0.00 | 0.00 | 0.00 | 48 | 1017.3 |
| 20260503011523 | 7 | 177 | 4.8 | 6.4 | 0.00 | 0.00 | 0.00 | 59 | 1017.4 |
| 20260503011021 | 7 | 257 | 1.6 | 6.4 | 0.00 | 0.00 | 0.00 | 49 | 1017.3 |
| 20260503010516 | 7 | 22 | 0.0 | 3.2 | 0.00 | 0.00 | 0.00 | 53 | 1017.4 |
| 20260503010015 | 7 | 284 | 1.6 | 6.4 | 0.00 | 0.00 | 0.00 | 54 | 1017.2 |
| 20260503005511 | 7 | 243 | 1.6 | 3.2 | 0.00 | 0.00 | 0.00 | 49 | 1016.9 |
| 20260503005008 | 7 | 155 | 4.8 | 6.4 | 0.00 | 0.00 | 0.00 | 56 | 1017.0 |
| 20260503004504 | 8 | 206 | 3.2 | 3.2 | 0.00 | 0.00 | 0.00 | 49 | 1016.7 |
| 20260503004003 | 8 | 318 | 4.8 | 6.4 | 0.00 | 0.00 | 0.00 | 46 | 1016.7 |
| 20260503003459 | 8 | 332 | 1.6 | 6.4 | 0.00 | 0.00 | 0.00 | 46 | 1016.6 |
| 20260503002956 | 8 | 293 | 3.2 | 6.4 | 0.00 | 0.00 | 0.00 | 45 | 1016.7 |
| 20260503002453 | 8 | 302 | 0.0 | 6.4 | 0.00 | 0.00 | 0.00 | 45 | 1016.5 |
| 20260503001949 | 8 | 302 | 0.0 | 1.6 | 0.00 | 0.00 | 0.00 | 49 | 1016.6 |
| 20260503001446 | 8 | 274 | 3.2 | 6.4 | 0.00 | 0.00 | 0.00 | 46 | 1016.5 |
| 20260503000943 | 8 | 302 | 4.8 | 8.0 | 0.00 | 0.00 | 0.00 | 44 | 1016.5 |
| 20260503000440 | 9 | 303 | 3.2 | 4.8 | 0.00 | 0.00 | 0.00 | 44 | 1016.3 |
| 20260502235938 | 8 | 224 | 8.0 | 8.0 | 0.00 | 0.00 | 0.00 | 43 | 1016.2 |
| 20260502235434 | 8 | 293 | 3.2 | 6.4 | 0.00 | 0.00 | 0.00 | 46 | 1016.4 |
| 20260502234932 | 8 | 303 | 4.8 | 9.7 | 0.00 | 0.00 | 0.00 | 42 | 1016.1 |
| 20260502234428 | 9 | 319 | 1.6 | 4.8 | 0.00 | 0.00 | 0.00 | 43 | 1016.2 |
| 20260502233926 | 10 | 291 | 9.7 | 9.7 | 0.00 | 0.00 | 0.00 | 41 | 1016.2 |
| 20260502233420 | 10 | 218 | 4.8 | 12.9 | 0.00 | 0.00 | 0.00 | 41 | 1016.0 |
| 20260502232918 | 10 | 348 | 6.4 | 14.5 | 0.00 | 0.00 | 0.00 | 40 | 1015.9 |
| 20260502232414 | 10 | 303 | 8.0 | 9.7 | 0.00 | 0.00 | 0.00 | 41 | 1015.9 |
| 20260502231912 | 10 | 306 | 9.7 | 12.9 | 0.00 | 0.00 | 0.00 | 40 | 1015.8 |
| 20260502231409 | 10 | 202 | 6.4 | 17.7 | 0.00 | 0.00 | 0.00 | 39 | 1016.0 |
| 20260502230906 | 10 | 326 | 6.4 | 9.7 | 0.00 | 0.00 | 0.00 | 40 | 1015.9 |
| 20260502230359 | 10 | 341 | 3.2 | 8.0 | 0.00 | 0.00 | 0.00 | 41 | 1015.8 |
| 20260502225855 | 10 | 299 | 8.0 | 9.7 | 0.00 | 0.00 | 0.00 | 39 | 1016.0 |
| 20260502225352 | 10 | 350 | 6.4 | 17.7 | 0.00 | 0.00 | 0.00 | 38 | 1015.7 |
| 20260502224849 | 10 | 335 | 6.4 | 9.7 | 0.00 | 0.00 | 0.00 | 40 | 1015.7 |
| 20260502224345 | 10 | 5 | 9.7 | 11.3 | 0.00 | 0.00 | 0.00 | 40 | 1015.7 |
| 20260502223843 | 10 | 312 | 4.8 | 6.4 | 0.00 | 0.00 | 0.00 | 42 | 1015.8 |
| 20260502223341 | 10 | 289 | 4.8 | 6.4 | 0.00 | 0.00 | 0.00 | 41 | 1015.7 |
| 20260502222838 | 10 | 301 | 3.2 | 11.3 | 0.00 | 0.00 | 0.00 | 40 | 1015.7 |
| 20260502222336 | 10 | 330 | 3.2 | 6.4 | 0.00 | 0.00 | 0.00 | 42 | 1015.7 |
| 20260502221831 | 10 | 339 | 6.4 | 9.7 | 0.00 | 0.00 | 0.00 | 42 | 1015.5 |
| 20260502221327 | 10 | 291 | 3.2 | 12.9 | 0.00 | 0.00 | 0.00 | 41 | 1015.7 |
| 20260502220825 | 10 | 320 | 4.8 | 11.3 | 0.00 | 0.00 | 0.00 | 41 | 1015.6 |